Back to catalog

TITAN 3C TRANSTAGE DEB

AliveHEO
NORAD 28839·DEBRIS·🇺🇸 United States

Launched Dec 21, 1965 from Cape Canaveral Space Force Station

Loading…

Next Passes (next 24 hours)

TLE

AgingSource: Space-Track

Epoch: Aug 25, 2026, 09:10 UTC

1 28839U 65108CR  26237.38220926 -.00000177  00000-0  00000-0 0  9998
2 28839  26.5363 164.7382 6691163 171.5334 211.3620  2.54774534202969

Track TITAN 3C TRANSTAGE DEB in real time with AllMySat

Download on the App Store